{"data":{"norad_id":60999,"intl_designator":"2024-158K","name":"STARLINK-11270 [DTC]","alt_names":[],"object_type":"PAYLOAD","status":"ACTIVE","operator":null,"country":"US","launch_date":"2024-09-05","launch_site_code":"AFETR","launch_vehicle":null,"mission":null,"orbit_class":"UNKNOWN","rcs_meters":null,"size_class":null,"mass_kg":null,"dimensions":null,"purposes":["comms"],"wikipedia_slug":null,"has_3d_model":false,"image_url":null,"decayed_at":null,"tle_current":{"epoch":"2026-05-25T05:17:03.293664Z","epoch_age_seconds":56847,"freshness":"FRESH","line1":"1 60999U 24158K   26145.22017701  .00193849  00000+0  15640-2 0  9992","line2":"2 60999  53.1566 264.0651 0000824  67.9173 292.1932 15.69768056 99607","mean_motion":15.69768056,"eccentricity":8.24e-5,"inclination_deg":53.1566,"raan_deg":264.0651,"arg_perigee_deg":67.9173,"mean_anomaly_deg":292.1932,"bstar":0.001564,"rev_number":9960,"period_min":91.733297444549,"perigee_km":359.00543520667,"apogee_km":360.11580777469,"semimajor_km":6737.6976214907,"source":"CELESTRAK","updated_at":"2026-05-25T13:38:19.323973Z"}}}